Погода в Большом Солдатском

Россия / Курская область     51°20′00″N   35°31′08″E
В апреле 2022 года жителям России запретили посещать сайт meteo.paraplan.net по решению Генеральной прокуратуры. Аудитория сайта уменьшилась в 10 раз. Владельцы сайта не видят смысла в поддержке погодного сервера в таких условиях. Сайт будет закрыт в октябре.
темп.,
°C
ветер,
м/с
пор.,
м/с
влажн.,
%
обл.,
%
осадки,
мм/ч
давл.,
гПа
погр.,
м
25 сентября, вс
вс2500:00+8з71285100 0.8 10081155
03:00+8з91591100 3.9 10081379
06:00+8з91491100 4.3 10071250
09:00+7з81486100 5.6 1009953
12:00+11з9136979 0.0 10101157
15:00+14з813525 0.0 10111622
18:00+11з612595 0.0 1012566
21:00+8зюз4127488 0.0 1013284
26 сентября, пн
пн2600:00+9з5126799 0.0 1013449
03:00+9зюз41165100 0.0 1014353
06:00+9зюз3670100 0.0 1013157
09:00+11зюз3568100 0.0 1014288
12:00+14зюз3562100 0.0 1014856
15:00+14з3565100 0.0 1014798
18:00+12юз2273100 0.0 101330
21:00+11св2272100 0.0 101332
27 сентября, вт
вт2700:00+9вюв2496100 4.1 1012169
03:00+10в3798100 11.1 1010292
06:00+10в369795 0.7 1009312
09:00+11в4592100 0.7 1009292
12:00+13вюв3488100 0.0 1008332
15:00+13юв2596100 0.8 1007272
18:00+12юв4797100 1.3 1006239
21:00+13юв51195100 1.6 1005343
28 сентября, ср
ср2800:00+13вюв51295100 3.9 1004484
03:00+12юв4996100 6.6 1002285
06:00+11вюв51197100 4.2 1000455
09:00+12юв51095100 9.1 999373
12:00+14ююз4896100 0.6 999490
15:00+14зюз5991100 0.8 1001599
18:00+13юз51088100 0.1 1003333
21:00+11зюз3109344 0.2 1005299
29 сентября, чт
чт2900:00+10з37955 0.0 1007155
03:00+9з239526 0.0 100943
06:00+10юз129052 0.0 101019
09:00+12ююз23830 0.0 1012212
12:00+16юз23695 0.0 1013837
15:00+18ююз225495 0.0 10141047
18:00+15юв1165100 0.0 101511
21:00+13вюв3472100 0.0 101650